Weather History for Spokane Felts, WA

Change the Weather History Date:

Sunday, April 14, 2013

  Actual Average Record
Temperature  
Mean Temperature 42 °F 47 °F  
Max Temperature 51 °F 58 °F 66 °F (2014)
Min Temperature 33 °F 36 °F 28 °F (1999)
Degree Days  
Heating Degree Days 23 18  
Month to date heating degree days 234 270  
Since 1 July heating degree days 5030 5591  
Cooling Degree Days 0 0  
Month to date cooling degree days 0 0  
Year to date cooling degree days 0 0  
Moisture  
Dew Point 27 °F    
Average Humidity 62    
Maximum Humidity 82    
Minimum Humidity 42    
Precipitation  
Precipitation 0.00 in 0.04 in 0.30 in (2008)
Month to date precipitation 0.53 0.64  
Year to date precipitation 3.76 5.54  
Sea Level Pressure  
Sea Level Pressure 29.91 in    
Wind  
Wind Speed 4 mph (South)    
Max Wind Speed 15 mph    
Max Gust Speed 17 mph    
Visibility 10 miles    
Events      
T = Trace of Precipitation, MM = Missing Value Source: NWS Daily Summary

Daily Weather History Graph

Daily Weather History Graph

Search for Another Location

Airport:

Trip Planner

Search our weather history database for the weather conditions in past years. The results will help you decide how hot, cold, wet, or windy it might be!

Date:

Astronomy

Apr. 14, 2013 Rise Set
Actual Time 6:01 AM PDT 7:38 PM PDT
Civil Twilight 5:29 AM PDT 8:10 PM PDT
Nautical Twilight 4:49 AM PDT 8:50 PM PDT
Astronomical Twilight 4:07 AM PDT 9:33 PM PDT
Moon 8:29 AM PDT (4/14) No Moon Set
Length of Visible Light 14h 41m
Length of Day
13h 36m
Waxing Crescent, 18% of the Moon is Illuminated
Apr 14
Waxing Crescent
Apr 18
First Quarter
Apr 25
Full
May 2
Last Quarter
May 9
New

Hourly Weather History & Observations

Time (PDT) Temp. Windchill Dew Point Humidity Pressure Visibility Wind Dir Wind Speed Gust Speed Precip Events Conditions
12:53 AM 36.0 °F 33.3 °F 23.0 °F 59% 29.85 in 10.0 mi WSW 3.5 mph - N/A   Clear
1:53 AM 34.0 °F 26.6 °F 25.0 °F 70% 29.87 in 10.0 mi SW 9.2 mph - N/A   Partly Cloudy
2:53 AM 34.0 °F 31.0 °F 26.1 °F 73% 29.88 in 10.0 mi Variable 3.5 mph - N/A   Overcast
3:53 AM 34.0 °F 28.8 °F 26.1 °F 73% 29.90 in 10.0 mi Variable 5.8 mph - N/A   Partly Cloudy
4:22 AM 33.8 °F 27.7 °F 26.6 °F 75% 29.88 in 10.0 mi SSW 6.9 mph - N/A   Mostly Cloudy
4:33 AM 33.8 °F 29.6 °F 26.6 °F 75% 29.88 in 10.0 mi SSW 4.6 mph - N/A   Mostly Cloudy
4:53 AM 33.8 °F 28.6 °F 26.6 °F 75% 29.89 in 10.0 mi South 5.8 mph - N/A   Overcast
5:53 AM 34.0 °F 28.8 °F 27.0 °F 75% 29.91 in 10.0 mi SSW 5.8 mph - N/A   Overcast
6:53 AM 34.0 °F 29.8 °F 27.0 °F 75% 29.93 in 10.0 mi SW 4.6 mph - N/A   Overcast
7:40 AM 35.6 °F 29.9 °F 28.4 °F 75% 29.91 in 10.0 mi SSE 6.9 mph - N/A   Overcast
7:53 AM 35.1 °F 28.6 °F 28.0 °F 76% 29.95 in 10.0 mi SE 8.1 mph - N/A   Overcast
8:53 AM 36.0 °F 29.6 °F 28.0 °F 73% 29.96 in 10.0 mi SSW 8.1 mph - N/A   Overcast
9:53 AM 37.0 °F 34.5 °F 28.0 °F 70% 29.96 in 10.0 mi East 3.5 mph - N/A   Overcast
10:53 AM 39.9 °F 33.9 °F 28.0 °F 63% 29.96 in 10.0 mi SE 9.2 mph - N/A   Overcast
11:53 AM 42.1 °F 39.2 °F 28.0 °F 58% 29.95 in 10.0 mi South 4.6 mph - N/A   Overcast
12:53 PM 42.8 °F - 26.6 °F 53% 29.91 in 10.0 mi Calm Calm - N/A   Mostly Cloudy
1:53 PM 48.9 °F - 28.9 °F 46% 29.91 in 10.0 mi Variable 4.6 mph - N/A   Mostly Cloudy
2:53 PM 46.9 °F - 24.1 °F 41% 29.90 in 10.0 mi Calm Calm - N/A   Scattered Clouds
3:53 PM 45.0 °F 39.7 °F 25.0 °F 46% 29.89 in 10.0 mi SSW 10.4 mph - N/A   Mostly Cloudy
4:53 PM 44.1 °F 40.1 °F 25.0 °F 47% 29.89 in 10.0 mi SW 6.9 mph - N/A   Mostly Cloudy
5:53 PM 46.0 °F 44.8 °F 26.1 °F 46% 29.89 in 10.0 mi North 3.5 mph - N/A   Mostly Cloudy
6:53 PM 44.1 °F 42.5 °F 28.0 °F 53% 29.89 in 10.0 mi North 3.5 mph - N/A   Partly Cloudy
7:53 PM 39.9 °F - 28.0 °F 63% 29.90 in 10.0 mi Calm Calm - N/A   Clear
8:53 PM 37.0 °F - 28.0 °F 70% 29.91 in 10.0 mi Calm Calm - N/A   Scattered Clouds
9:53 PM 36.0 °F - 28.0 °F 73% 29.92 in 10.0 mi Calm Calm - N/A   Partly Cloudy
10:53 PM 37.0 °F 34.5 °F 30.0 °F 76% 29.91 in 10.0 mi NE 3.5 mph - N/A   Overcast
11:53 PM 36.0 °F 33.3 °F 30.0 °F 79% 29.91 in 10.0 mi NNE 3.5 mph - N/A   Overcast